Regional Weather Roundup
Issued by NWS Sterling, VA

Home | Current Version | Previous Version | Graphics & Text | Print | Product List | Glossary On
Versions: 1 2 3 4 5 6 7 8 9 10 11 12 13 14 15 16 17 18 19 20 21 22 23 24 25 26 27 28
000
ASUS41 KLWX 190711
RWRLWX

REGIONAL WEATHER ROUNDUP
NATIONAL WEATHER SERVICE BALTIMORE MD/WASHINGTON DC
300 AM EDT THU OCT 19 2017

Note: "FAIR" indicates few or no clouds below 12,000 feet
with no significant weather and/or obstructions to visibility.
 TC=TEMPERATURE CELSIUS

 * =Non NWS site. Station does not report precipitation (e.g. rain,
    snow, etc.), thunder, or fog.

DCZ001-MDZ009-015-VAZ040>042-051-053>054-190800-
WASHINGTON METRO

CITY           SKY/WX    TMP DP  RH WIND       PRES   REMARKS
WASHINGTON NAT PTCLDY    51  46  83 SW5       30.30F
DULLES         PTCLDY    46  43  89 S3        30.28F
ANDREWS AFB    CLEAR     48  44  88 S3        30.28F
FT BELVOIR     PTCLDY    43  42  95 CALM      30.30S
QUANTICO       PTCLDY    47  46  97 NW7       30.31F
COLLEGE PARK*  CLEAR     43  42  97 CALM      30.29F
LEESBURG*      PTCLDY    43  43 100 CALM      30.29S
MANASSAS*      PTCLDY    39  38  96 CALM      30.29F
GAITHERSBURG*  CLEAR     45  44  97 SE5       30.28F

$$

MDZ006>007-011-014-190800-
BALTIMORE METRO

CITY           SKY/WX    TMP DP  RH WIND       PRES   REMARKS
BWI AIRPORT    PTCLDY    45  45 100 CALM      30.28F
MD SCIENCE CTR   N/A     54  46  74 MISG      30.29F
MARTIN STATE   PTCLDY    48  48 100 CALM      30.30F
ANNAPOLIS      PTCLDY    53  52  96 CALM      30.28F
FORT MEADE*    CLEAR     39  39 100 CALM      30.31F

$$

MDZ012-015-019>023-190800-
MARYLAND EASTERN SHORE

CITY           SKY/WX    TMP DP  RH WIND       PRES   REMARKS
OCEAN CITY     CLEAR     44  43  96 CALM      30.31F
SALISBURY      CLEAR     41  40  96 E3        30.31F
CAMBRIDGE*     CLEAR     45  45 100 CALM      30.30F
EASTON*        MOCLDY    48  46  91 CALM      30.33F

$$

MDZ017>025-190800-
SOUTHERN MARYLAND

CITY           SKY/WX    TMP DP  RH WIND       PRES   REMARKS
PATUXENT RIVER PTCLDY    54  50  86 SW6       30.29F
ST INIGOES     PTCLDY    48  47  96 CALM      30.29F
LEONARDTOWN*   NOT AVBL

$$

MDZ003>005-190800-
NORTH CENTRAL MARYLAND

CITY           SKY/WX    TMP DP  RH WIND       PRES   REMARKS
FREDERICK*     CLEAR     45  45 100 CALM      30.30F
HAGERSTOWN APT CLEAR     53  42  66 CALM      30.26S
WESTMINSTER*   CLEAR     52  45  76 S3        30.27F

$$

MDZ501>502-190800-
WESTERN MARYLAND

CITY           SKY/WX    TMP DP  RH WIND       PRES   REMARKS
OAKLAND*       CLEAR     48  34  57 SW7       30.23F
CUMBERLAND*    CLEAR     43  43 100 CALM      30.30S

$$

VAZ025>031-190800-
SHENANDOAH VALLEY

CITY           SKY/WX    TMP DP  RH WIND       PRES   REMARKS
WINCHESTER*    CLEAR     45  39  81 SW3       30.26F
FRONT ROYAL*   CLEAR     46  41  81 MISG      30.25F
LURAY*         CLEAR     41  41 100 CALM      30.27F
NEW MARKET*    CLEAR     38  37  97 CALM      30.27F
STAUNTON*      PTCLDY    38  36  91 W3        30.30F
WAYNESBORO*    PTCLDY    40  39  97 SW3       30.29F

$$

WVZ021-048>050-054>055-190800-
EASTERN WEST VIRGINIA PANHANDLE

CITY           SKY/WX    TMP DP  RH WIND       PRES   REMARKS
MARTINSBURG    PTCLDY    41  39  93 SW3       30.25F
PETERSBURG*    CLEAR     37  36  96 CALM      30.27S

$$

VAZ036>039-050-190800-
CENTRAL FOOTHILLS

CITY           SKY/WX    TMP DP  RH WIND       PRES   REMARKS
CHARLOTTESVILL PTCLDY    47  44  90 W5        30.28F
CULPEPER*      PTCLDY    40  38  94 CALM      30.29F
ORANGE*        CLEAR     39  37  93 CALM      30.29F
GORDONSVILLE*  CLEAR     40  40 100 SW3       30.29S
WARRENTON*     FOG       36  33  90 CALM      30.28F VSB 1

$$

VAZ055>057-190800-
NORTH AND CENTRAL PIEDMONT

CITY           SKY/WX    TMP DP  RH WIND       PRES   REMARKS
FREDERICKSBRG* CLEAR     44  44 100 CALM      30.30S
STAFFORD*      CLEAR     38  38 100 CALM      30.34S

$$

NCZ024-NYZ072-PAZ021-071-VAZ022-071-190800-
OTHER REGIONAL OBSERVATIONS

CITY           SKY/WX    TMP DP  RH WIND       PRES   REMARKS
NEW YORK CITY  CLEAR     60  45  57 W6        30.29S
PHILADELPHIA   PTCLDY    53  47  79 SW6       30.29F
PITTSBURGH     CLEAR     45  40  82 CALM      30.20S
ROANOKE        CLEAR     45  42  89 CALM      30.32F
RICHMOND       CLOUDY    45  43  93 CALM      30.30F
RALEIGH        CLOUDY    44  43  96 CALM      30.30F

$$

ANZ530>537-190800-
MARINE OBSERVATIONS

STATION/POSITION TIME  TEMP    WIND        PRES
                       AIR SEA DIR/SP/G
                 (UTC) (F)     (DEG/KT/KT) (MB)
THOMAS PT LIGHT  0700   58 67  220/ 10/ 12   N/A
BALT KEY BRIDGE  0648          220/  8/  9 1025.2F
COVE POINT       0648          230/  9/ 11 1026.4F
LEWISETTA        0648      65  220/  3/  4 1026.0F
SOLOMONS ISLAND  0648      69  200/  7/  8 1025.4F
PINEY POINT      0648          220/ 10/ 11   N/A

$$





USA.gov is the U.S. government's official web portal to all federal, state and local government web resources and services.